Location: �clusier
(49.9361°N, 2.7869°E)
Time: 07:25:30
(UTC+00:00)

SL-16 R/B - Pass Details

Date: 16 June 2021
Orbit: 842 x 847 km, 71.0° (Epoch: 31 July)

Event Time Altitude Azimuth Distance (km) Brightness Sun altitude
Exits shadow 23:20:26 19° 137° (SE) 1,889 3.6 -16.4°
Maximum altitude 23:22:45 25° 103° (ESE) 1,634 3.5 -16.4°
Drops below altitude 10° 23:27:17 10° 50° (NE) 2,473 5.1 -16.5°
Sets 23:30:06 0° 37° (NE) 3,412 6.1 -16.6°
